Weather History for Beach, ND

Change the Weather History Date:

Saturday, March 31, 2012

  Actual Average (KGDV) Record (KGDV)
Temperature  
Mean Temperature 58 °F -  
Max Temperature 73 °F 45 °F 78 °F (2004)
Min Temperature 42 °F 24 °F 6 °F (2009)
Degree Days  
Heating Degree Days 8    
Growing Degree Days 8 (Base 50)    
Moisture  
Dew Point 31 °F    
Average Humidity 38    
Maximum Humidity 66    
Minimum Humidity 22    
Precipitation  
Precipitation 0.00 in - - ()
Sea Level Pressure  
Sea Level Pressure 29.64 in    
Wind  
Wind Speed 9 mph (SW)    
Max Wind Speed 15 mph    
Max Gust Speed 22 mph    
Visibility 10 miles    
Events      
Averages and records for this station are not official NWS values.
T = Trace of Precipitation, MM = Missing Value Source: NWS Daily Summary

Daily Weather History Graph

Daily Weather History Graph

Search for Another Location

Airport:

Trip Planner

Search our weather history database for the weather conditions in past years. The results will help you decide how hot, cold, wet, or windy it might be!

Date:

Astronomy

Mar. 31, 2012 Rise Set
Actual Time 6:36 AM MDT 7:24 PM MDT
Civil Twilight 6:05 AM MDT 7:55 PM MDT
Nautical Twilight 5:28 AM MDT 8:32 PM MDT
Astronomical Twilight 4:50 AM MDT 9:10 PM MDT
Moon 12:31 PM MDT (3/31) 2:58 AM MDT (3/31)
Length of Visible Light 13h 50m
Length of Day
12h 48m
First Quarter, 59% of the Moon is Illuminated
Mar 31
First Quarter
Apr 6
Full
Apr 13
Last Quarter
Apr 21
New
Apr 29
First Quarter

Hourly Weather History & Observations

Time (MDT) Temp. Windchill Dew Point Humidity Pressure Visibility Wind Dir Wind Speed Gust Speed Precip Events Conditions
12:15 AM 59.0 °F - 28.4 °F 31% 29.59 in 10.0 mi SW 13.8 mph - N/A   Clear
12:35 AM 57.2 °F - 28.4 °F 33% 29.60 in 10.0 mi WSW 11.5 mph - N/A   Clear
12:55 AM 57.2 °F - 28.4 °F 33% 29.60 in 10.0 mi WSW 11.5 mph - N/A   Clear
1:15 AM 55.4 °F - 28.4 °F 36% 29.61 in 10.0 mi WSW 9.2 mph - N/A   Clear
1:35 AM 53.6 °F - 30.2 °F 41% 29.62 in 10.0 mi West 9.2 mph - N/A   Clear
1:55 AM 55.4 °F - 30.2 °F 38% 29.64 in 10.0 mi West 12.7 mph - N/A   Clear
2:15 AM 53.6 °F - 30.2 °F 41% 29.64 in 10.0 mi West 12.7 mph - N/A   Clear
2:35 AM 55.4 °F - 32.0 °F 41% 29.65 in 10.0 mi WNW 15.0 mph - N/A   Clear
2:55 AM 53.6 °F - 32.0 °F 44% 29.66 in 10.0 mi NW 12.7 mph - N/A   Clear
3:15 AM 53.6 °F - 32.0 °F 44% 29.66 in 10.0 mi NW 13.8 mph - N/A   Clear
3:35 AM 50.0 °F - 32.0 °F 50% 29.68 in 10.0 mi NW 8.1 mph - N/A   Clear
3:55 AM 46.4 °F 42.9 °F 32.0 °F 57% 29.68 in 10.0 mi NNW 6.9 mph - N/A   Clear
4:15 AM 44.6 °F 40.7 °F 32.0 °F 61% 29.70 in 10.0 mi NNW 6.9 mph - N/A   Clear
4:35 AM 44.6 °F 42.2 °F 32.0 °F 61% 29.70 in 10.0 mi West 4.6 mph - N/A   Clear
4:55 AM 44.6 °F 41.4 °F 32.0 °F 61% 29.70 in 10.0 mi WNW 5.8 mph - N/A   Clear
5:15 AM 42.8 °F 39.3 °F 32.0 °F 66% 29.70 in 10.0 mi West 5.8 mph - N/A   Clear
5:35 AM 42.8 °F 38.0 °F 32.0 °F 66% 29.70 in 10.0 mi WNW 8.1 mph - N/A   Clear
5:55 AM 44.6 °F 41.4 °F 32.0 °F 61% 29.71 in 10.0 mi WSW 5.8 mph - N/A   Partly Cloudy
6:15 AM 42.8 °F 39.3 °F 32.0 °F 66% 29.71 in 10.0 mi NW 5.8 mph - N/A   Partly Cloudy
6:35 AM 42.8 °F 41.1 °F 30.2 °F 61% 29.72 in 10.0 mi WNW 3.5 mph - N/A   Clear
6:55 AM 42.8 °F 39.3 °F 30.2 °F 61% 29.73 in 10.0 mi NW 5.8 mph - N/A   Mostly Cloudy
7:15 AM 44.6 °F 41.4 °F 32.0 °F 61% 29.74 in 10.0 mi West 5.8 mph - N/A   Overcast
7:35 AM 46.4 °F 43.5 °F 32.0 °F 57% 29.74 in 10.0 mi West 5.8 mph - N/A   Overcast
7:55 AM 48.2 °F - 30.2 °F 50% 29.74 in 10.0 mi NW 8.1 mph - N/A   Overcast
8:15 AM 50.0 °F - 30.2 °F 47% 29.74 in 10.0 mi NW 6.9 mph - N/A   Scattered Clouds
8:35 AM 51.8 °F - 28.4 °F 41% 29.74 in 10.0 mi NNW 5.8 mph - N/A   Clear
8:55 AM 53.6 °F - 28.4 °F 38% 29.74 in 10.0 mi North 3.5 mph - N/A   Clear
9:15 AM 53.6 °F - 28.4 °F 38% 29.74 in 10.0 mi NNE 3.5 mph - N/A   Clear
9:35 AM 53.6 °F - 28.4 °F 38% 29.74 in 10.0 mi WNW 5.8 mph - N/A   Clear
9:55 AM 55.4 °F - 28.4 °F 36% 29.73 in 10.0 mi Calm Calm - N/A   Clear
10:15 AM 55.4 °F - 28.4 °F 36% 29.73 in 10.0 mi East 4.6 mph - N/A   Partly Cloudy
10:35 AM 55.4 °F - 28.4 °F 36% 29.73 in 10.0 mi SW 3.5 mph - N/A   Clear
10:55 AM 57.2 °F - 28.4 °F 33% 29.73 in 10.0 mi Calm Calm - N/A   Clear
11:15 AM 59.0 °F - 28.4 °F 31% 29.71 in 10.0 mi SSE 4.6 mph - N/A   Clear
11:35 AM 59.0 °F - 28.4 °F 31% 29.70 in 10.0 mi Calm Calm - N/A   Clear
11:55 AM 62.6 °F - 28.4 °F 27% 29.69 in 10.0 mi SE 6.9 mph - N/A   Clear
12:15 PM 62.6 °F - 28.4 °F 27% 29.69 in 10.0 mi South 5.8 mph - N/A   Clear
12:35 PM 64.4 °F - 28.4 °F 26% 29.68 in 10.0 mi South 12.7 mph - N/A   Clear
12:55 PM 66.2 °F - 28.4 °F 24% 29.67 in 10.0 mi South 10.4 mph - N/A   Clear
1:15 PM 66.2 °F - 30.2 °F 26% 29.66 in 10.0 mi South 10.4 mph 17.3 mph N/A   Clear
1:35 PM 68.0 °F - 32.0 °F 26% 29.65 in 10.0 mi South 5.8 mph 17.3 mph N/A   Clear
1:55 PM 68.0 °F - 32.0 °F 26% 29.65 in 10.0 mi South 10.4 mph 17.3 mph N/A   Clear
2:15 PM 69.8 °F - 32.0 °F 25% 29.64 in 10.0 mi South 10.4 mph 17.3 mph N/A   Clear
2:55 PM 71.6 °F - 32.0 °F 23% 29.61 in 10.0 mi SSE 12.7 mph 16.1 mph N/A   Clear
3:15 PM 71.6 °F - 32.0 °F 23% 29.60 in 10.0 mi SSE 8.1 mph 18.4 mph N/A   Clear
3:35 PM 73.4 °F - 32.0 °F 22% 29.59 in 10.0 mi SE 10.4 mph 16.1 mph N/A   Clear
3:55 PM 73.4 °F - 32.0 °F 22% 29.57 in 10.0 mi South 8.1 mph - N/A   Clear
4:15 PM 73.4 °F - 33.8 °F 23% 29.57 in 10.0 mi SE 10.4 mph - N/A   Partly Cloudy
4:35 PM 73.4 °F - 33.8 °F 23% 29.55 in 10.0 mi SE 10.4 mph - N/A   Partly Cloudy
4:55 PM 73.4 °F - 33.8 °F 23% 29.54 in 10.0 mi ESE 9.2 mph - N/A   Partly Cloudy
5:15 PM 71.6 °F - 33.8 °F 25% 29.53 in 10.0 mi ESE 5.8 mph - N/A   Mostly Cloudy
5:35 PM 73.4 °F - 33.8 °F 23% 29.52 in 10.0 mi East 9.2 mph 16.1 mph N/A   Mostly Cloudy
5:55 PM 71.6 °F - 35.6 °F 27% 29.52 in 10.0 mi East 9.2 mph - N/A   Mostly Cloudy
6:15 PM 69.8 °F - 35.6 °F 28% 29.50 in 10.0 mi East 10.4 mph - N/A   Overcast
6:35 PM 68.0 °F - 35.6 °F 30% 29.49 in 10.0 mi East 11.5 mph - N/A   Mostly Cloudy
6:55 PM 68.0 °F - 35.6 °F 30% 29.48 in 10.0 mi East 12.7 mph - N/A   Partly Cloudy
7:15 PM 66.2 °F - 33.8 °F 30% 29.48 in 10.0 mi East 11.5 mph - N/A   Clear
7:35 PM 68.0 °F - 33.8 °F 28% 29.49 in 10.0 mi East 15.0 mph - N/A   Partly Cloudy
7:55 PM 66.2 °F - 33.8 °F 30% 29.48 in 10.0 mi East 12.7 mph 21.9 mph N/A   Mostly Cloudy
8:15 PM 66.2 °F - 35.6 °F 32% 29.49 in 10.0 mi East 13.8 mph - N/A   Overcast
8:35 PM 66.2 °F - 35.6 °F 32% 29.49 in 10.0 mi ESE 15.0 mph - N/A   Overcast
8:55 PM 62.6 °F - 37.4 °F 39% 29.48 in 10.0 mi East 12.7 mph - N/A   Overcast
9:15 PM 62.6 °F - 35.6 °F 37% 29.47 in 10.0 mi East 15.0 mph - N/A   Mostly Cloudy
9:35 PM 60.8 °F - 35.6 °F 39% 29.46 in 10.0 mi ESE 15.0 mph - N/A   Partly Cloudy
9:55 PM 64.4 °F - 35.6 °F 34% 29.44 in 10.0 mi SE 17.3 mph 23.0 mph N/A   Scattered Clouds
10:15 PM 64.4 °F - 35.6 °F 34% 29.44 in 10.0 mi SE 19.6 mph 27.6 mph N/A   Mostly Cloudy
10:35 PM 64.4 °F - 35.6 °F 34% 29.44 in 10.0 mi SE 17.3 mph 25.3 mph N/A   Overcast
10:55 PM 62.6 °F - 35.6 °F 37% 29.43 in 10.0 mi ESE 15.0 mph 21.9 mph N/A   Mostly Cloudy
11:15 PM 60.8 °F - 35.6 °F 39% 29.42 in 10.0 mi ESE 12.7 mph - N/A   Partly Cloudy
11:35 PM 59.0 °F - 35.6 °F 42% 29.41 in 10.0 mi ESE 12.7 mph - N/A   Clear
11:55 PM 55.4 °F - 35.6 °F 47% 29.40 in 10.0 mi East 15.0 mph - N/A   Clear